CSN666 UHMD-UHMA

Flight info

Callsign CSN666
Flight time N/A
Altitude 8000
Route AKETA1B AKETA G212 NALEK NALEK1N
Aircraft C208/L-SDFGR/C

Departure

Time 2026-05-05 00:15
Airport Provideniya Bay Airport (UHMD)

Arrival

Time N/A
Airport Ugolny Yuri Ryktheu Airport (UHMA)
Time Latitude Longitude Altitude Speed Heading
2026-05-05 00:11 64.38382 -173.23269 54 ft 0 kts 212°
2026-05-05 00:12 64.38373 -173.23321 51 ft 11 kts 259°
2026-05-05 00:12 64.38292 -173.23460 54 ft 21 kts 182°
2026-05-05 00:12 64.38137 -173.23437 52 ft 26 kts 195°
2026-05-05 00:12 64.37973 -173.23586 54 ft 28 kts 192°
2026-05-05 00:13 64.37775 -173.23750 52 ft 27 kts 203°
2026-05-05 00:13 64.37620 -173.23897 52 ft 23 kts 200°
2026-05-05 00:13 64.37466 -173.24037 50 ft 8 kts 233°
2026-05-05 00:13 64.37458 -173.24234 54 ft 17 kts 273°
2026-05-05 00:14 64.37469 -173.24470 51 ft 17 kts 282°
2026-05-05 00:14 64.37563 -173.24534 55 ft 18 kts 20°
2026-05-05 00:14 64.37723 -173.24405 53 ft 32 kts 22°
2026-05-05 00:14 64.38001 -173.24167 51 ft 60 kts 22°
2026-05-05 00:15 64.38539 -173.23676 93 ft 98 kts 19°
2026-05-05 00:15 64.39155 -173.23028 413 ft 95 kts 24°
2026-05-05 00:15 64.39804 -173.22701 673 ft 100 kts 360°
2026-05-05 00:15 64.40560 -173.22726 904 ft 115 kts 353°
2026-05-05 00:16 64.41101 -173.22866 1089 ft 121 kts 345°
2026-05-05 00:16 64.41819 -173.23909 1388 ft 126 kts 314°
2026-05-05 00:16 64.42252 -173.25660 1703 ft 129 kts 279°
2026-05-05 00:16 64.42238 -173.27746 1992 ft 132 kts 256°
2026-05-05 00:17 64.41956 -173.29785 2274 ft 134 kts 253°
2026-05-05 00:17 64.41675 -173.31861 2548 ft 136 kts 256°
2026-05-05 00:17 64.41522 -173.34010 2877 ft 132 kts 263°
2026-05-05 00:17 64.41371 -173.36057 3280 ft 128 kts 261°
2026-05-05 00:18 64.41230 -173.38087 3671 ft 127 kts 262°
2026-05-05 00:18 64.41081 -173.40109 4092 ft 129 kts 261°
2026-05-05 00:18 64.40937 -173.42142 4464 ft 129 kts 262°
2026-05-05 00:18 64.40788 -173.44172 4876 ft 124 kts 262°
2026-05-05 00:19 64.40642 -173.46102 5259 ft 119 kts 262°
2026-05-05 00:19 64.40505 -173.47940 5642 ft 115 kts 262°
2026-05-05 00:19 64.40368 -173.49729 6036 ft 111 kts 261°
2026-05-05 00:19 64.40240 -173.51486 6427 ft 107 kts 262°
2026-05-05 00:20 64.40112 -173.53157 6804 ft 104 kts 263°
2026-05-05 00:20 64.39990 -173.54781 7164 ft 99 kts 263°
2026-05-05 00:20 64.39877 -173.56260 7523 ft 90 kts 264°
2026-05-05 00:20 64.39771 -173.57630 7877 ft 84 kts 264°
2026-05-05 00:21 64.39663 -173.59081 7999 ft 105 kts 264°
2026-05-05 00:21 64.39533 -173.60939 8018 ft 128 kts 264°
2026-05-05 00:21 64.39375 -173.63120 8019 ft 146 kts 263°
2026-05-05 00:21 64.39201 -173.65524 8017 ft 157 kts 263°
2026-05-05 00:22 64.39005 -173.68077 8011 ft 164 kts 262°
2026-05-05 00:22 64.38803 -173.70693 8004 ft 167 kts 263°
2026-05-05 00:22 64.38600 -173.73351 8004 ft 168 kts 263°
2026-05-05 00:22 64.38396 -173.75982 7997 ft 169 kts 262°
2026-05-05 00:23 64.38190 -173.78690 8012 ft 169 kts 263°
2026-05-05 00:23 64.37989 -173.81366 8002 ft 172 kts 263°
2026-05-05 00:23 64.37780 -173.84077 7998 ft 170 kts 263°
2026-05-05 00:23 64.37718 -173.86783 7994 ft 168 kts 273°
2026-05-05 00:24 64.37733 -173.89478 7994 ft 167 kts 272°
2026-05-05 00:24 64.37734 -173.92168 7997 ft 167 kts 272°
2026-05-05 00:24 64.37731 -173.94852 7996 ft 167 kts 272°
2026-05-05 00:24 64.37729 -173.97539 7997 ft 167 kts 272°
2026-05-05 00:25 64.37727 -174.00218 7994 ft 167 kts 272°
2026-05-05 00:25 64.37724 -174.02896 7998 ft 167 kts 272°
2026-05-05 00:25 64.37721 -174.05576 7998 ft 166 kts 272°
2026-05-05 00:25 64.37717 -174.08225 8000 ft 166 kts 272°
2026-05-05 00:26 64.37713 -174.10903 8000 ft 166 kts 272°
2026-05-05 00:26 64.37708 -174.13580 7999 ft 166 kts 272°
2026-05-05 00:26 64.37703 -174.16251 8002 ft 166 kts 272°
2026-05-05 00:26 64.37697 -174.18933 8000 ft 166 kts 272°
2026-05-05 00:27 64.37691 -174.21611 8001 ft 166 kts 272°
2026-05-05 00:27 64.37684 -174.24286 8003 ft 166 kts 272°
2026-05-05 00:27 64.37677 -174.26926 8001 ft 166 kts 272°
2026-05-05 00:27 64.37670 -174.29602 8002 ft 166 kts 272°
2026-05-05 00:28 64.37661 -174.32283 8001 ft 166 kts 272°
2026-05-05 00:28 64.37653 -174.34956 8001 ft 166 kts 272°
2026-05-05 00:28 64.37644 -174.37634 8001 ft 166 kts 271°
2026-05-05 00:28 64.37634 -174.40270 8002 ft 166 kts 272°
2026-05-05 00:29 64.37624 -174.42977 8001 ft 166 kts 272°
2026-05-05 00:29 64.37747 -174.45611 8005 ft 165 kts 282°
2026-05-05 00:29 64.37956 -174.48209 8005 ft 165 kts 281°
2026-05-05 00:29 64.38147 -174.50788 8005 ft 165 kts 281°
2026-05-05 00:30 64.38338 -174.53404 8007 ft 165 kts 281°
2026-05-05 00:30 64.38528 -174.56026 8005 ft 165 kts 281°
2026-05-05 00:30 64.38718 -174.58641 8004 ft 165 kts 281°
2026-05-05 00:30 64.38909 -174.61254 8005 ft 165 kts 281°
2026-05-05 00:31 64.39098 -174.63873 8004 ft 165 kts 281°
2026-05-05 00:31 64.39288 -174.66485 8007 ft 165 kts 281°
2026-05-05 00:31 64.39475 -174.69092 8005 ft 164 kts 281°
2026-05-05 00:31 64.39660 -174.71668 8006 ft 165 kts 281°
2026-05-05 00:32 64.39851 -174.74316 8004 ft 165 kts 281°
2026-05-05 00:32 64.40037 -174.76924 8007 ft 165 kts 281°
2026-05-05 00:32 64.40223 -174.79530 8006 ft 165 kts 281°
2026-05-05 00:32 64.40410 -174.82148 8006 ft 165 kts 281°
2026-05-05 00:33 64.40595 -174.84764 8003 ft 165 kts 281°
2026-05-05 00:33 64.40780 -174.87377 8005 ft 165 kts 281°
2026-05-05 00:33 64.40963 -174.89963 8006 ft 165 kts 281°
2026-05-05 00:33 64.41147 -174.92575 8004 ft 165 kts 281°
2026-05-05 00:34 64.41331 -174.95198 8005 ft 165 kts 281°
2026-05-05 00:34 64.41514 -174.97814 8003 ft 164 kts 281°
2026-05-05 00:34 64.41697 -175.00432 8002 ft 164 kts 281°
2026-05-05 00:34 64.41879 -175.03043 8004 ft 164 kts 281°
2026-05-05 00:35 64.42061 -175.05662 8004 ft 165 kts 281°
2026-05-05 00:35 64.42240 -175.08247 8004 ft 165 kts 280°
2026-05-05 00:35 64.42421 -175.10869 8006 ft 165 kts 280°
2026-05-05 00:35 64.42602 -175.13490 8005 ft 165 kts 281°
2026-05-05 00:36 64.42783 -175.16105 8006 ft 165 kts 280°
2026-05-05 00:36 64.42960 -175.18694 8121 ft 158 kts 280°
2026-05-05 00:36 64.43122 -175.21128 8375 ft 149 kts 280°
2026-05-05 00:36 64.43279 -175.23456 8633 ft 143 kts 281°
2026-05-05 00:37 64.43431 -175.25701 8894 ft 139 kts 280°
2026-05-05 00:37 64.43580 -175.27894 9152 ft 136 kts 281°
2026-05-05 00:37 64.43726 -175.30046 9416 ft 134 kts 281°
2026-05-05 00:37 64.43870 -175.32169 9690 ft 132 kts 281°
2026-05-05 00:38 64.44011 -175.34265 9959 ft 131 kts 281°
2026-05-05 00:38 64.44158 -175.36442 10011 ft 143 kts 281°
2026-05-05 00:38 64.44319 -175.38792 10028 ft 152 kts 281°
2026-05-05 00:38 64.44484 -175.41239 10028 ft 158 kts 281°
2026-05-05 00:39 64.44655 -175.43781 10028 ft 161 kts 281°
2026-05-05 00:39 64.44827 -175.46379 10023 ft 164 kts 281°
2026-05-05 00:39 64.45002 -175.49002 10024 ft 165 kts 281°
2026-05-05 00:39 64.45176 -175.51639 10026 ft 165 kts 280°
2026-05-05 00:40 64.45348 -175.54243 10026 ft 166 kts 281°
2026-05-05 00:40 64.45522 -175.56880 10024 ft 166 kts 280°
2026-05-05 00:40 64.45695 -175.59523 10025 ft 166 kts 280°
2026-05-05 00:40 64.45868 -175.62166 10024 ft 166 kts 280°
2026-05-05 00:41 64.46041 -175.64813 10021 ft 166 kts 280°
2026-05-05 00:41 64.46214 -175.67468 10023 ft 166 kts 280°
2026-05-05 00:41 64.46384 -175.70082 10025 ft 166 kts 280°
2026-05-05 00:41 64.46555 -175.72730 10022 ft 166 kts 280°
2026-05-05 00:42 64.46726 -175.75384 10022 ft 166 kts 280°
2026-05-05 00:42 64.46897 -175.78035 10022 ft 166 kts 280°
2026-05-05 00:42 64.47067 -175.80683 10015 ft 166 kts 280°
2026-05-05 00:42 64.47236 -175.83327 10015 ft 166 kts 280°
2026-05-05 00:43 64.47404 -175.85975 10010 ft 166 kts 280°
2026-05-05 00:43 64.47571 -175.88594 10015 ft 166 kts 280°
2026-05-05 00:43 64.47739 -175.91243 10012 ft 166 kts 280°
2026-05-05 00:43 64.47906 -175.93892 10012 ft 166 kts 280°
2026-05-05 00:44 64.48074 -175.96542 10011 ft 166 kts 280°
2026-05-05 00:44 64.48240 -175.99193 10009 ft 166 kts 280°
2026-05-05 00:44 64.48406 -176.01849 10008 ft 166 kts 280°
2026-05-05 00:44 64.48570 -176.04495 10008 ft 166 kts 280°
2026-05-05 00:45 64.48736 -176.07145 10011 ft 166 kts 280°
2026-05-05 00:45 64.48901 -176.09791 10009 ft 166 kts 280°
2026-05-05 00:45 64.49065 -176.12444 10005 ft 166 kts 280°
2026-05-05 00:45 64.49231 -176.15091 10008 ft 166 kts 280°
2026-05-05 00:46 64.49391 -176.17717 10006 ft 166 kts 280°
2026-05-05 00:46 64.49554 -176.20371 10008 ft 166 kts 279°
2026-05-05 00:46 64.49716 -176.23028 10000 ft 166 kts 280°
2026-05-05 00:46 64.49877 -176.25677 10005 ft 166 kts 280°
2026-05-05 00:47 64.50038 -176.28322 10004 ft 166 kts 280°
2026-05-05 00:47 64.50199 -176.30977 10006 ft 166 kts 280°
2026-05-05 00:47 64.50359 -176.33633 10006 ft 166 kts 279°
2026-05-05 00:47 64.50517 -176.36248 10005 ft 166 kts 279°
2026-05-05 00:48 64.50676 -176.38901 10004 ft 166 kts 280°
2026-05-05 00:48 64.50834 -176.41550 10005 ft 166 kts 279°
2026-05-05 00:48 64.50992 -176.44200 10005 ft 165 kts 280°
2026-05-05 00:48 64.51151 -176.46857 10006 ft 165 kts 279°
2026-05-05 00:49 64.51308 -176.49511 10001 ft 166 kts 279°
2026-05-05 00:49 64.51465 -176.52161 10003 ft 166 kts 279°
2026-05-05 00:49 64.51621 -176.54815 10004 ft 166 kts 279°
2026-05-05 00:49 64.51775 -176.57435 10002 ft 166 kts 279°
2026-05-05 00:50 64.51930 -176.60087 10003 ft 166 kts 279°
2026-05-05 00:50 64.52085 -176.62735 10000 ft 166 kts 279°
2026-05-05 00:50 64.52239 -176.65389 10002 ft 166 kts 279°
2026-05-05 00:50 64.52393 -176.68047 10003 ft 166 kts 279°
2026-05-05 00:51 64.52547 -176.70703 10001 ft 166 kts 279°
2026-05-05 00:51 64.52700 -176.73358 10000 ft 166 kts 279°
2026-05-05 00:51 64.52852 -176.76013 10002 ft 166 kts 279°
2026-05-05 00:51 64.53004 -176.78664 10001 ft 166 kts 279°
2026-05-05 00:52 64.53155 -176.81312 10004 ft 166 kts 279°
2026-05-05 00:52 64.53304 -176.83935 10004 ft 166 kts 279°
2026-05-05 00:52 64.53454 -176.86588 10003 ft 166 kts 279°
2026-05-05 00:52 64.53604 -176.89240 10002 ft 166 kts 279°
2026-05-05 00:53 64.53754 -176.91904 10000 ft 166 kts 279°
2026-05-05 00:53 64.53903 -176.94559 10004 ft 166 kts 279°
2026-05-05 00:53 64.54052 -176.97217 10005 ft 165 kts 279°
2026-05-05 00:53 64.54200 -176.99878 10002 ft 166 kts 279°
2026-05-05 00:54 64.54348 -177.02535 9999 ft 166 kts 279°
2026-05-05 00:54 64.54493 -177.05156 9999 ft 166 kts 279°
2026-05-05 00:54 64.54640 -177.07813 9996 ft 166 kts 279°
2026-05-05 00:54 64.54786 -177.10475 10000 ft 165 kts 279°
2026-05-05 00:55 64.54932 -177.13129 10004 ft 165 kts 279°
2026-05-05 00:55 64.55077 -177.15784 10002 ft 165 kts 279°
2026-05-05 00:55 64.55221 -177.18440 10004 ft 165 kts 279°
2026-05-05 00:55 64.55365 -177.21093 10002 ft 165 kts 279°
2026-05-05 00:56 64.55509 -177.23749 10000 ft 165 kts 279°
2026-05-05 00:56 64.55652 -177.26399 9995 ft 165 kts 279°
2026-05-05 00:56 64.55747 -177.28160 10001 ft 165 kts 279°
2026-05-05 00:56 64.55888 -177.30809 10002 ft 165 kts 279°
2026-05-05 00:57 64.56030 -177.33464 10000 ft 165 kts 279°
2026-05-05 00:57 64.56171 -177.36115 10000 ft 165 kts 279°
2026-05-05 00:57 64.56312 -177.38769 9998 ft 165 kts 279°
2026-05-05 00:57 64.56452 -177.41420 9998 ft 165 kts 279°
2026-05-05 00:58 64.56592 -177.44079 9996 ft 165 kts 279°
2026-05-05 00:58 64.56732 -177.46739 9997 ft 165 kts 279°
2026-05-05 00:58 64.56870 -177.49391 10000 ft 165 kts 279°
2026-05-05 00:58 64.57009 -177.52050 10000 ft 165 kts 278°
2026-05-05 00:59 64.57145 -177.54679 9993 ft 165 kts 278°
2026-05-05 00:59 64.57284 -177.57345 10001 ft 165 kts 278°
2026-05-05 00:59 64.57421 -177.60005 10001 ft 165 kts 278°
2026-05-05 00:59 64.57557 -177.62669 9999 ft 165 kts 278°
2026-05-05 01:00 64.57694 -177.65341 9994 ft 165 kts 278°
2026-05-05 01:00 64.57830 -177.68001 10001 ft 165 kts 278°
2026-05-05 01:00 64.57963 -177.70625 9998 ft 165 kts 278°
2026-05-05 01:00 64.58100 -177.73318 9994 ft 165 kts 278°
2026-05-05 01:01 64.58232 -177.75954 9992 ft 165 kts 278°
2026-05-05 01:01 64.58366 -177.78616 10000 ft 165 kts 278°
2026-05-05 01:01 64.58499 -177.81277 9997 ft 165 kts 278°
2026-05-05 01:01 64.58633 -177.83936 9996 ft 165 kts 278°
2026-05-05 01:02 64.58765 -177.86598 9993 ft 165 kts 278°
2026-05-05 01:02 64.58895 -177.89233 9992 ft 166 kts 278°
2026-05-05 01:02 64.59026 -177.91896 9995 ft 165 kts 278°
2026-05-05 01:02 64.59157 -177.94550 9995 ft 165 kts 278°
2026-05-05 01:03 64.59288 -177.97221 9992 ft 165 kts 278°
2026-05-05 01:03 64.59418 -177.99885 9992 ft 165 kts 278°
2026-05-05 01:03 64.59547 -178.02543 9997 ft 165 kts 278°
2026-05-05 01:03 64.59675 -178.05186 9999 ft 165 kts 278°
2026-05-05 01:04 64.59804 -178.07858 9998 ft 165 kts 278°
2026-05-05 01:04 64.60060 -178.13196 9997 ft 166 kts 278°
2026-05-05 01:04 64.60187 -178.15869 9999 ft 166 kts 278°
2026-05-05 01:05 64.60312 -178.18501 9993 ft 166 kts 278°
2026-05-05 01:05 64.60439 -178.21169 9990 ft 165 kts 278°
2026-05-05 01:05 64.60564 -178.23831 9996 ft 165 kts 278°
2026-05-05 01:05 64.60689 -178.26499 9992 ft 165 kts 278°
2026-05-05 01:06 64.60813 -178.29164 9992 ft 166 kts 278°
2026-05-05 01:06 64.60938 -178.31836 9993 ft 166 kts 278°
2026-05-05 01:06 64.61062 -178.34506 9986 ft 166 kts 278°
2026-05-05 01:06 64.61185 -178.37179 9995 ft 166 kts 278°
2026-05-05 01:07 64.61306 -178.39804 9995 ft 166 kts 278°
2026-05-05 01:07 64.61429 -178.42498 9993 ft 166 kts 278°
2026-05-05 01:07 64.61551 -178.45171 9993 ft 166 kts 277°
2026-05-05 01:07 64.61673 -178.47849 9990 ft 166 kts 277°
2026-05-05 01:08 64.61794 -178.50524 9990 ft 166 kts 278°
2026-05-05 01:08 64.61915 -178.53197 9992 ft 166 kts 277°
2026-05-05 01:08 64.62036 -178.55881 9991 ft 166 kts 277°
2026-05-05 01:08 64.62154 -178.58525 9990 ft 166 kts 277°
2026-05-05 01:09 64.62273 -178.61210 9993 ft 166 kts 277°
2026-05-05 01:09 64.62392 -178.63893 9987 ft 166 kts 277°
2026-05-05 01:09 64.62511 -178.66573 9985 ft 166 kts 277°
2026-05-05 01:09 64.62629 -178.69255 9992 ft 166 kts 277°
2026-05-05 01:10 64.62745 -178.71905 9990 ft 166 kts 277°
2026-05-05 01:10 64.62861 -178.74577 9990 ft 166 kts 277°
2026-05-05 01:10 64.62977 -178.77255 9989 ft 166 kts 277°
2026-05-05 01:10 64.63094 -178.79939 9987 ft 166 kts 277°
2026-05-05 01:11 64.63208 -178.82618 9991 ft 166 kts 277°
2026-05-05 01:11 64.63323 -178.85294 9991 ft 166 kts 277°
2026-05-05 01:11 64.63438 -178.87981 9992 ft 166 kts 277°
2026-05-05 01:11 64.63552 -178.90667 9987 ft 166 kts 277°
2026-05-05 01:12 64.63666 -178.93349 9989 ft 166 kts 277°
2026-05-05 01:12 64.63778 -178.96035 9987 ft 166 kts 277°
2026-05-05 01:12 64.63891 -178.98722 9990 ft 166 kts 277°
2026-05-05 01:12 64.64003 -179.01410 9991 ft 166 kts 277°
2026-05-05 01:13 64.64115 -179.04096 9993 ft 166 kts 277°
2026-05-05 01:13 64.64226 -179.06784 9991 ft 166 kts 277°
2026-05-05 01:13 64.64336 -179.09474 9989 ft 166 kts 277°
2026-05-05 01:13 64.64447 -179.12153 9990 ft 166 kts 277°
2026-05-05 01:14 64.64555 -179.14805 9990 ft 166 kts 277°
2026-05-05 01:14 64.64665 -179.17498 9993 ft 166 kts 277°
2026-05-05 01:14 64.64774 -179.20190 9988 ft 166 kts 277°
2026-05-05 01:14 64.64882 -179.22883 9991 ft 166 kts 277°
2026-05-05 01:15 64.64990 -179.25571 9990 ft 166 kts 277°
2026-05-05 01:15 64.65096 -179.28246 9990 ft 167 kts 277°
2026-05-05 01:15 64.65204 -179.30950 9985 ft 167 kts 276°
2026-05-05 01:15 64.65311 -179.33653 9986 ft 167 kts 276°
2026-05-05 01:16 64.65417 -179.36353 9988 ft 167 kts 276°
2026-05-05 01:16 64.65523 -179.39048 9984 ft 167 kts 276°
2026-05-05 01:16 64.65627 -179.41717 9987 ft 167 kts 276°
2026-05-05 01:16 64.65732 -179.44415 9987 ft 167 kts 276°
2026-05-05 01:17 64.65836 -179.47117 9987 ft 167 kts 276°
2026-05-05 01:17 64.65940 -179.49829 9985 ft 167 kts 276°
2026-05-05 01:17 64.66044 -179.52531 9991 ft 167 kts 276°
2026-05-05 01:17 64.66146 -179.55230 9987 ft 167 kts 276°
2026-05-05 01:18 64.66249 -179.57936 9991 ft 167 kts 276°
2026-05-05 01:18 64.66351 -179.60644 9987 ft 167 kts 276°
2026-05-05 01:18 64.66452 -179.63320 9988 ft 167 kts 276°
2026-05-05 01:18 64.66553 -179.66023 9984 ft 167 kts 276°
2026-05-05 01:19 64.66653 -179.68726 9989 ft 167 kts 276°
2026-05-05 01:19 64.66753 -179.71439 9986 ft 167 kts 276°
2026-05-05 01:19 64.66852 -179.74138 9987 ft 167 kts 276°
2026-05-05 01:19 64.66951 -179.76848 9986 ft 167 kts 276°
2026-05-05 01:20 64.67050 -179.79556 9984 ft 167 kts 276°
2026-05-05 01:20 64.67148 -179.82275 9986 ft 167 kts 276°
2026-05-05 01:20 64.67246 -179.84983 9986 ft 167 kts 276°
2026-05-05 01:20 64.67344 -179.87699 9990 ft 167 kts 276°
2026-05-05 01:21 64.67440 -179.90408 9984 ft 167 kts 276°
2026-05-05 01:21 64.67536 -179.93122 9985 ft 167 kts 276°
2026-05-05 01:21 64.67632 -179.95833 9986 ft 167 kts 276°
2026-05-05 01:21 64.67727 -179.98542 9987 ft 167 kts 276°
2026-05-05 01:22 64.67822 179.98742 9985 ft 167 kts 276°
2026-05-05 01:22 64.67915 179.96061 9985 ft 167 kts 276°
2026-05-05 01:22 64.68008 179.93342 9986 ft 168 kts 275°
2026-05-05 01:22 64.68103 179.90625 9983 ft 168 kts 275°
2026-05-05 01:23 64.68194 179.87907 9988 ft 168 kts 275°
2026-05-05 01:23 64.68278 179.85191 9984 ft 168 kts 275°
2026-05-05 01:23 64.68361 179.82469 9980 ft 168 kts 275°
2026-05-05 01:23 64.68445 179.79746 9986 ft 168 kts 275°
2026-05-05 01:24 64.68528 179.77024 9986 ft 168 kts 275°
2026-05-05 01:24 64.68611 179.74303 9983 ft 168 kts 275°
2026-05-05 01:24 64.68693 179.71606 9981 ft 168 kts 275°
2026-05-05 01:24 64.68775 179.68888 9983 ft 168 kts 275°
2026-05-05 01:25 64.68856 179.66157 9982 ft 168 kts 275°
2026-05-05 01:25 64.68937 179.63432 9984 ft 168 kts 275°
2026-05-05 01:25 64.69018 179.60707 9984 ft 168 kts 275°
2026-05-05 01:25 64.69098 179.57983 9987 ft 168 kts 275°
2026-05-05 01:26 64.69177 179.55253 9982 ft 168 kts 275°
2026-05-05 01:26 64.69256 179.52535 9986 ft 168 kts 275°
2026-05-05 01:26 64.69334 179.49834 9977 ft 168 kts 275°
2026-05-05 01:26 64.69410 179.47110 9979 ft 168 kts 274°
2026-05-05 01:27 64.69483 179.44379 9979 ft 168 kts 275°
2026-05-05 01:27 64.69564 179.41657 9980 ft 168 kts 275°
2026-05-05 01:27 64.69648 179.38930 9978 ft 168 kts 275°
2026-05-05 01:27 64.69729 179.36208 9982 ft 168 kts 275°
2026-05-05 01:28 64.69812 179.33472 9981 ft 168 kts 275°
2026-05-05 01:28 64.69926 179.30753 9978 ft 168 kts 284°
2026-05-05 01:28 64.70456 179.28339 9982 ft 168 kts 301°
2026-05-05 01:28 64.71073 179.26006 9981 ft 168 kts 299°
2026-05-05 01:29 64.71635 179.23646 9985 ft 168 kts 297°
2026-05-05 01:29 64.72188 179.21202 9984 ft 168 kts 296°
2026-05-05 01:29 64.72727 179.18797 9919 ft 168 kts 296°
2026-05-05 01:29 64.73256 179.16447 9599 ft 158 kts 296°
2026-05-05 01:30 64.73758 179.14211 9285 ft 152 kts 296°
2026-05-05 01:30 64.74247 179.12028 8977 ft 150 kts 296°
2026-05-05 01:30 64.74729 179.09879 8676 ft 148 kts 296°
2026-05-05 01:30 64.75211 179.07725 8386 ft 150 kts 296°
2026-05-05 01:31 64.75698 179.05559 8090 ft 149 kts 296°
2026-05-05 01:31 64.76171 179.03443 7806 ft 148 kts 296°
2026-05-05 01:31 64.76649 179.01302 7511 ft 147 kts 295°
2026-05-05 01:31 64.77122 178.99177 7229 ft 147 kts 296°
2026-05-05 01:32 64.77596 178.97060 6951 ft 146 kts 295°
2026-05-05 01:32 64.78056 178.95000 6847 ft 138 kts 295°
2026-05-05 01:32 64.78488 178.93051 6790 ft 133 kts 295°
2026-05-05 01:32 64.78913 178.91139 6728 ft 131 kts 295°
2026-05-05 01:33 64.79331 178.89273 6672 ft 128 kts 295°
2026-05-05 01:33 64.79737 178.87422 6614 ft 127 kts 295°
2026-05-05 01:33 64.80149 178.85578 6560 ft 128 kts 294°
2026-05-05 01:33 64.80553 178.83755 6509 ft 127 kts 295°
2026-05-05 01:34 64.80966 178.81904 6453 ft 129 kts 294°
2026-05-05 01:34 64.81380 178.80026 6391 ft 129 kts 296°
2026-05-05 01:34 64.81799 178.78169 6343 ft 128 kts 295°
2026-05-05 01:34 64.82197 178.76296 6287 ft 128 kts 292°
2026-05-05 01:35 64.82570 178.74405 6227 ft 128 kts 294°
2026-05-05 01:35 64.82967 178.72529 6177 ft 129 kts 294°
2026-05-05 01:35 64.83361 178.70629 6116 ft 128 kts 293°
2026-05-05 01:35 64.83750 178.68735 6066 ft 129 kts 294°
2026-05-05 01:36 64.84142 178.66832 6014 ft 130 kts 293°
2026-05-05 01:36 64.84528 178.64937 5954 ft 127 kts 293°
2026-05-05 01:36 64.84918 178.63044 5892 ft 128 kts 293°
2026-05-05 01:36 64.85317 178.61095 5855 ft 142 kts 292°
2026-05-05 01:37 64.85757 178.58924 5832 ft 155 kts 293°
2026-05-05 01:37 64.86237 178.56565 5789 ft 163 kts 293°
2026-05-05 01:37 64.86743 178.54123 5758 ft 168 kts 294°
2026-05-05 01:37 64.87251 178.51626 5717 ft 170 kts 294°
2026-05-05 01:38 64.87760 178.49104 5655 ft 170 kts 293°
2026-05-05 01:38 64.88094 178.47451 5634 ft 168 kts 295°
2026-05-05 01:38 64.88615 178.44934 5575 ft 171 kts 293°
2026-05-05 01:38 64.89117 178.42399 5532 ft 172 kts 293°
2026-05-05 01:39 64.89351 178.41221 5493 ft 0 kts 293°